OPS 4682 DEB, 38379

Orbit data source: Space-Track

OPS 4682 DEB, 38379 is space debris in LEO originally from a launch on Sat, 03 Apr 1965 UTC launched from the Air Force Western Test Range (AFWTR). Debris objects in space refer to the collection of defunct objects orbiting the Earth. Examples of debris include non-operational satellites, rocket bodies, and fragments generated from explosions, collisions, or faulty payload assembly.

Loading next visibility...
Identifier
38379, 1965-027CG
Orbit
LEO
Country
Flag of USUS
Related business
Manufacturer
Unknown
Mission
Spacecraft
Bus & Motor
Unknown
Mass
Unknown
Launch date (UTC)
1965-04-03 (61 years ago)
Launch vehicle
Unknown
Launch site
Air Force Western Test Range (AFWTR)
Object type
Payload
Rocket body
Debris
Shape & HBR
Unknown shape, 0.1 m
Radar Cross Section
Medium (>0.1 m² and <1 m²)

Expand to show TLE details & history
Last TLE update: 5 days ago

TLE from 5 days ago
0 OPS 4682 DEB
1 38379U 65027CG  26259.53180104  .00000613  00000-0  19948-2 0  9999
2 38379  90.2459   6.0607 0025542 359.1674   0.9401 13.00562964644333
Epoch: 2026-09-16T12:45Z
TLE epoch observation values (Epoch: 2026-09-16T12:45:47.609Z)
Latitude
-0.00011°
Longitude
179.13028°
Altitude
1,243.256 km
Speed
7.242 km/s
True Right ascension
00h 24m 14s
True Declination
0° 00' 00"
Sunlit
Object was in full shadow at epoch
Visualization orbit readout
Latitude
Unknown
Longitude
Unknown
Altitude
Unknown
Speed
Unknown
Apparent Right ascension
Unknown
Apparent Declination
Unknown
Sunlit
N/A
Visualization observer readout
Local Sidereal Time
10:58:52
Azimuth
Unknown
Elevation
Unknown
Doppler factor
Unknown
Orbital elements
Apogee altitude
1,276.51 km
Perigee altitude
1,237.506 km
Semi-major axis
7,635.145 km
Eccentricity
0.00255
Inclination
90.2459°
RAAN
6.0607°
Arg. of periapsis
359.1674°
True anomaly
0.94492°
Mean anomaly
0.9401°
Eccentric anomaly
0.94251°
Mean motion
3.25325 °/min
Orbital period
110.66 mins
BSTAR
0.0019948
Loading maneuver chart data...
Computing Atmospheric mass density...
Loading historical data...
Loading historical data...
Loading historical data...
Loading historical data...
Loading historical data...
Loading historical data...
Loading historical data...

Documentation

Showing up to 5 results
|